Temp
7 10 11 12 12 15 15 15 16 16 16 16 16 17 16 16 16 15 14 14 14 15 14 14 14 14 13 13 15 15 15 14 13 14 15 16 15 15 14 14 13 12 12
6 6 7 11 12 13 15 16 15 15 16 16 16 16 16 16 15 14 14 14 14 13 13 13 13 15 13 13 13 14 14 14 14 14 14 15 15 15 15 15 14 13 12
3 5 6 9 10 11 12 14 15 15 16 16 15 16 16 15 15 14 14 14 14 13 13 12 13 13 13 13 13 13 13 13 13 13 14 14 15 15 14 14 14 13 13
2 3 4 6 8 10 11 13 14 15 15 16 16 16 15 16 15 15 14 14 14 13 13 13 13 12 13 13 12 12 12 12 12 12 13 13 14 15 14 13 11 12 12
1 2 3 5 7 8 11 13 13 14 14 15 16 15 15 15 14 14 14 14 14 14 13 13 13 13 13 13 12 12 12 12 12 12 12 12 11 12 12 12 11 11 12
1 2 3 4 6 7 9 10 11 13 14 14 15 15 15 14 14 15 15 14 14 14 13 13 13 13 13 13 13 13 13 12 12 12 12 12 13 12 13 12 11 9 8
2 3 4 5 6 8 8 9 11 12 14 14 14 15 15 15 15 15 16 14 14 14 13 13 13 13 13 13 13 13 13 13 13 13 12 12 13 13 12 11 10 11 11
2 3 4 4 5 6 8 9 10 12 14 14 14 14 15 15 15 16 15 15 14 14 14 13 13 13 13 13 12 12 12 12 13 13 12 12 13 13 13 12 11 11 11
2 3 3 4 5 6 8 8 10 11 14 14 14 16 15 15 16 15 16 15 14 14 14 14 13 13 13 13 13 13 13 13 13 13 13 13 13 13 13 11 10 9 9
1 2 3 4 5 6 6 8 9 11 13 14 15 17 17 16 16 16 16 16 13 13 13 14 14 13 13 13 13 13 13 13 13 13 12 12 12 12 12 12 11 9 10
1 2 2 3 3 3 4 6 7 9 11 11 12 12 12 12 12 12 13 13 13 13 13 13 13 13 13 13 14 13 13 13 13 13 13 13 11 11 11 10 10 11 10
0 1 1 1 1 1 1 2 3 5 5 6 6 7 8 8 8 10 10 8 10 10 12 13 13 13 13 14 14 14 14 14 13 13 13 12 12 11 11 11 10 10 10
-1 -0 -0 0 0 0 -1 -1 -1 -0 0 0 1 1 1 3 6 7 9 9 10 8 9 10 11 11 12 12 12 12 11 11 11 11 12 12 12 12 11 10 10 10 10
-1 -1 -1 -1 -0 -1 -1 -1 -2 -2 -2 -2 -1 -1 -1 -1 -1 2 3 4 5 7 8 7 8 9 9 9 10 10 10 9 10 10 11 11 12 12 11 11 10 9 8
-1 -1 -1 -1 -1 -1 -1 -2 -2 -2 -3 -2 -3 -2 -2 -2 -3 -1 1 1 2 4 6 6 6 6 7 8 9 9 9 9 9 10 10 10 11 11 11 10 9 8 7
-1 -2 -2 -1 -1 -1 -1 -1 -1 -2 -2 -2 -3 -3 -3 -3 -2 1 1 1 2 3 1 1 1 2 2 3 4 4 6 8 9 9 9 9 10 10 9 8 8 7 6
-2 -2 -3 -2 -2 -2 -2 -2 -2 -2 -2 -3 -3 -3 -3 -3 -1 -0 -0 -1 -1 1 -2 -2 -1 -1 -0 1 1 2 2 3 5 6 7 8 9 9 8 7 7 6 6
-3 -3 -3 -3 -3 -3 -3 -3 -2 -2 -3 -3 -3 -4 -3 -3 -3 -2 -2 -1 -2 -3 -3 -3 -3 -3 -2 -2 -1 -0 1 2 3 4 4 5 6 7 6 6 6 5 5
-3 -3 -3 -3 -4 -4 -3 -4 -3 -3 -3 -4 -4 -4 -4 -4 -4 -4 -4 -4 -4 -4 -4 -4 -4 -4 -3 -3 -2 -2 -1 0 1 2 2 3 3 4 3 4 3 3 3
-4 -4 -4 -4 -4 -4 -4 -4 -4 -3 -3 -4 -4 -5 -5 -5 -5 -5 -5 -5 -5 -5 -5 -5 -4 -4 -4 -3 -3 -2 -2 -1 -1 -0 -0 0 1 1 1 2 2 2 1
-4 -4 -4 -4 -4 -4 -4 -4 -3 -4 -4 -4 -5 -5 -5 -5 -5 -5 -5 -6 -6 -6 -6 -5 -5 -4 -4 -3 -3 -3 -2 -2 -1 -1 -1 -1 -0 -0 -0 -0 -0 -0 -0
-4 -4 -4 -4 -4 -4 -4 -4 -4 -4 -4 -5 -5 -5 -5 -5 -6 -6 -6 -6 -6 -7 -6 -6 -5 -4 -4 -3 -3 -3 -3 -2 -2 -1 -1 -1 -1 -1 -1 -1 -1 -1 -1
-4 -5 -4 -4 -4 -4 -4 -4 -5 -5 -5 -5 -5 -5 -5 -6 -6 -6 -6 -7 -7 -7 -7 -6 -5 -5 -4 -3 -2 -2 -2 -2 -2 -2 -2 -2 -2 -2 -2 -2 -2 -1 -1
-4 -4 -5 -4 -4 -4 -5 -5 -5 -5 -5 -5 -6 -6 -6 -6 -6 -6 -6 -6 -6 -6 -6 -6 -5 -5 -4 -3 -3 -2 -2 -2 -2 -2 -2 -2 -2 -2 -2 -2 -2 -2 -2
-4 -4 -5 -5 -5 -5 -5 -5 -5 -5 -5 -5 -6 -6 -6 -6 -6 -7 -7 -6 -6 -5 -5 -5 -5 -4 -4 -4 -3 -2 -2 -1 -1 -1 -1 -1 -1 -1 -2 -2 -2 -3 -3
-3 -4 -4 -5 -5 -5 -5 -5 -5 -5 -5 -6 -6 -6 -7 -7 -7 -7 -7 -6 -5 -5 -5 -5 -5 -4 -4 -4 -3 -2 -2 -2 -1 -1 -1 -1 -1 -2 -2 -2 -2 -3 -3
Height
815 812 812 814 813 815 817 818 820 823 827 829 831 834 837 839 842 844 846 848 850 852 854 856 855 858 859 861 862 862 863 864 862 859 861 862 862 862 863 864 865 865 866
810 812 814 811 812 811 813 814 816 817 819 822 825 827 829 831 833 837 838 839 841 842 845 847 847 848 850 851 853 853 853 855 855 852 853 854 854 855 856 856 856 857 857
811 808 810 807 809 810 809 810 812 813 814 815 818 820 821 823 825 827 829 831 832 833 834 837 836 840 840 840 842 843 844 845 845 845 844 846 847 847 847 847 847 848 849
807 807 804 803 804 805 806 806 804 807 808 809 810 812 815 816 817 819 821 823 825 824 826 827 827 830 829 830 833 833 834 835 834 837 835 837 837 838 839 837 837 838 839
804 803 802 801 801 801 800 800 802 801 802 803 803 805 807 807 809 811 813 813 815 816 816 816 817 818 818 820 823 823 825 825 825 826 827 828 826 827 825 825 826 828 828
804 802 800 798 797 796 795 795 796 796 795 796 796 796 797 798 800 802 804 805 806 807 807 806 807 808 808 808 811 811 812 814 815 816 815 817 815 816 817 815 816 821 823
802 798 797 794 792 791 790 789 788 787 788 787 787 788 788 789 791 793 794 795 797 797 796 797 798 798 798 797 797 799 802 803 803 805 804 803 802 803 807 809 808 807 805
801 796 792 789 787 785 784 782 781 779 777 778 779 780 780 780 781 783 785 785 785 786 786 787 787 787 788 787 787 789 788 789 790 791 789 788 788 791 791 787 793 794 797
796 794 790 787 783 779 777 775 774 771 769 770 770 772 772 773 774 776 778 778 777 776 777 776 776 776 774 777 778 778 777 776 776 775 776 777 779 782 783 785 785 788 788
798 792 786 781 778 775 773 770 768 766 762 764 763 765 767 768 770 770 771 769 768 769 768 765 764 763 763 764 763 766 764 765 767 767 764 764 766 767 771 770 771 771 773
793 786 782 778 776 774 770 767 764 761 759 759 761 763 764 764 765 762 761 760 759 759 757 755 754 754 755 756 754 753 752 752 752 752 751 750 748 750 753 754 755 755 753
792 789 784 780 778 774 770 767 763 760 759 759 760 761 761 761 760 758 757 756 754 753 749 748 746 747 746 744 747 743 741 740 738 738 736 735 735 734 733 733 732 736 735
798 793 788 784 782 779 774 771 768 767 764 764 767 765 763 761 757 754 753 751 750 747 745 742 741 740 739 738 735 733 731 731 728 726 721 719 721 719 719 718 718 716 718
801 795 792 790 788 786 782 777 778 776 775 774 768 769 770 766 763 754 752 749 745 742 739 736 732 730 727 725 723 722 720 720 718 714 710 707 707 706 703 705 703 702 702
806 802 799 794 792 791 789 789 787 787 784 783 782 779 776 772 768 763 757 751 747 741 735 731 729 726 721 719 716 714 711 710 706 703 699 694 693 691 686 687 689 692 694
812 809 807 804 801 798 796 796 795 794 791 790 786 785 782 780 772 761 757 752 748 742 739 736 732 727 724 721 716 709 705 700 695 692 687 683 678 675 673 675 677 679 682
820 817 813 810 807 805 803 801 799 798 796 792 790 787 783 779 772 765 759 755 751 743 742 740 737 733 728 723 717 710 703 696 688 682 677 670 666 663 665 668 671 677 676
826 823 820 818 815 813 811 809 808 804 800 796 793 789 785 781 776 769 763 757 750 748 750 749 744 738 731 725 718 712 705 697 690 683 677 670 665 663 665 667 670 674 678
829 827 825 823 820 819 817 815 812 809 806 803 798 792 788 785 780 775 768 763 762 760 758 755 751 745 738 730 723 716 710 703 696 689 683 681 676 673 669 670 675 679 681
832 831 829 826 825 823 820 819 816 813 809 806 802 798 793 787 780 777 775 772 768 767 763 759 754 749 742 735 727 719 713 706 702 697 692 688 685 683 682 682 682 686 691
835 834 832 829 827 827 824 823 820 816 813 810 807 804 800 794 791 786 782 778 775 771 767 763 758 753 746 738 732 724 719 713 707 702 697 693 690 690 689 688 690 693 697
837 835 833 832 831 829 827 826 823 818 815 812 810 807 803 799 795 792 788 783 780 776 772 767 762 756 751 744 737 731 724 719 714 708 707 704 701 698 697 697 698 700 701
839 838 837 836 835 833 830 828 825 821 818 815 813 810 806 803 800 796 793 788 784 779 775 771 766 761 755 750 743 737 731 725 721 717 714 713 711 708 707 705 705 706 709
842 841 839 838 836 834 832 829 827 824 822 819 816 813 810 807 804 800 796 791 787 782 778 774 769 765 759 754 749 744 739 735 731 726 722 720 719 718 715 715 715 717 720
843 841 840 837 835 833 831 829 827 825 822 820 817 814 812 810 807 803 798 793 789 785 781 777 773 768 763 760 755 751 747 743 739 736 733 730 728 727 726 727 727 728 731
842 841 839 837 835 833 831 829 827 824 821 819 816 814 811 808 805 802 799 796 792 789 785 781 777 774 770 765 761 757 753 750 747 745 742 740 738 736 736 736 737 737 740
Wind_Speed
15 16 16 11 11 34 31 32 37 37 35 32 33 35 40 40 43 42 43 41 44 45 44 41 43 41 38 35 38 38 39 36 21 25 24 25 34 32 31 35 37 37 36
18 17 17 15 14 12 30 30 30 35 37 38 37 36 39 39 39 40 42 39 44 42 44 41 44 44 41 37 34 38 38 37 30 27 26 29 28 32 34 35 36 40 40
21 22 22 18 19 17 13 23 33 35 36 34 36 35 36 39 38 39 40 41 41 43 43 39 47 39 41 39 37 36 35 36 35 31 30 28 31 31 33 37 39 41 42
25 25 25 23 23 23 22 18 24 36 36 38 36 37 38 40 39 38 38 40 40 41 43 42 44 39 43 40 38 37 38 33 34 33 32 29 31 35 34 37 38 41 44
24 26 26 25 25 24 25 24 23 30 35 38 39 38 37 39 39 39 41 40 39 41 41 42 45 43 45 44 38 38 35 33 31 30 30 28 28 26 33 37 37 36 44
25 23 23 22 23 24 24 20 24 26 33 35 37 38 37 37 38 41 43 40 39 39 39 42 43 45 48 50 50 50 41 36 32 30 29 27 34 32 33 36 34 24 14
23 24 21 21 20 20 21 27 28 28 30 36 36 38 40 41 39 42 43 46 40 40 41 41 40 42 45 48 51 54 53 52 49 39 34 35 34 36 34 30 32 32 35
18 19 19 20 21 21 24 28 28 25 30 33 35 38 39 39 41 41 42 46 46 43 41 42 43 42 39 42 44 39 47 54 56 58 50 47 46 41 39 48 44 45 38
15 17 16 17 21 19 20 23 23 20 26 31 34 37 37 36 39 40 40 43 44 43 42 43 43 43 46 47 42 37 39 39 47 54 61 60 60 50 43 37 32 26 23
16 15 12 11 12 13 16 17 14 13 14 26 33 32 31 32 33 34 35 40 37 36 39 40 42 48 48 50 46 42 37 39 40 40 42 53 60 62 57 48 41 34 33
15 15 17 16 12 9 7 7 7 7 5 3 3 4 5 8 10 15 22 32 32 32 32 34 37 41 45 53 53 45 41 42 42 45 45 45 44 50 54 56 54 48 38
18 18 20 22 19 19 17 17 17 16 16 16 14 12 13 12 13 12 12 12 14 24 25 29 31 32 34 40 49 52 56 53 49 41 37 33 37 38 45 51 55 59 51
24 23 24 23 25 25 29 28 27 26 27 24 20 21 24 24 20 20 18 20 20 23 23 25 28 30 32 36 39 39 35 36 38 35 35 38 41 41 45 45 50 52 52
26 29 28 26 24 27 27 32 29 26 23 23 24 22 21 26 30 29 27 28 29 27 26 26 28 32 33 35 38 39 38 34 35 36 36 38 37 36 37 42 41 40 40
25 27 26 25 27 24 28 30 28 33 31 24 23 19 22 25 30 20 19 23 23 24 23 19 18 18 21 25 27 29 29 32 33 35 39 37 38 38 39 37 35 29 25
24 25 25 24 24 24 23 22 26 27 31 30 30 28 22 26 25 22 19 25 21 16 20 19 18 21 19 20 20 21 24 30 34 36 36 36 36 36 32 29 30 25 23
25 24 25 25 24 24 24 23 22 24 24 30 30 30 30 30 30 29 26 25 31 28 28 24 22 22 22 22 22 22 22 21 19 26 28 30 30 24 25 19 19 18 15
21 22 24 24 24 23 22 20 20 20 21 25 29 30 30 29 32 32 32 31 36 36 29 25 24 25 24 25 25 25 25 23 22 20 17 12 5 10 15 13 12 12 12
22 22 20 18 20 21 23 23 20 20 20 21 25 29 30 28 28 31 34 30 25 25 27 26 27 26 25 25 25 24 21 21 21 20 19 18 17 15 18 14 16 15 15
21 19 19 17 17 18 19 19 19 20 20 22 24 27 29 27 30 30 29 28 26 25 26 27 28 28 29 28 27 27 25 23 20 16 13 12 14 14 14 13 14 14 15
18 17 17 17 18 17 16 17 17 17 17 18 19 24 25 23 24 24 25 26 26 26 26 26 27 28 28 29 29 27 25 23 21 20 16 17 17 18 17 18 19 20 21
17 16 19 18 15 16 16 16 17 17 17 18 17 20 21 22 22 22 24 23 22 22 23 24 27 28 28 28 29 28 25 24 21 20 19 19 20 20 21 22 23 23 24
14 14 13 13 12 13 14 14 15 17 18 17 18 18 20 20 20 21 24 22 20 21 22 22 23 25 25 24 26 27 26 23 22 20 22 22 23 24 24 24 24 25 25
8 8 8 8 9 10 11 13 13 13 14 15 15 16 17 17 17 18 22 21 20 19 20 22 22 22 24 24 22 23 23 21 20 20 22 25 26 26 27 28 28 28 27
5 4 4 5 6 7 8 9 10 10 10 11 12 13 12 12 14 16 20 19 18 19 19 20 21 22 24 23 22 19 17 17 18 19 22 25 27 28 28 28 27 28 26
5 5 4 4 3 4 6 6 7 9 10 9 10 11 12 12 12 13 16 17 16 17 16 17 18 18 19 21 20 19 18 17 17 17 20 22 25 26 26 26 25 26 25
Wind_Direction
358 351 347 330 317 226 224 233 233 234 227 231 234 231 231 233 236 234 230 230 234 237 239 237 240 243 242 244 245 245 245 247 243 261 259 258 246 248 250 246 246 249 250
337 334 320 320 323 318 248 236 246 241 236 236 234 228 230 232 233 229 232 227 234 233 238 234 242 245 243 242 239 244 242 244 239 250 254 250 247 246 249 250 248 247 249
338 323 311 310 303 299 317 260 247 250 250 244 237 235 232 230 229 231 230 230 231 236 237 234 241 239 242 240 237 239 241 243 246 243 251 254 249 248 243 244 246 246 248
331 325 317 308 299 292 284 284 270 252 250 249 246 240 238 242 240 237 232 231 232 235 238 237 242 237 242 241 238 237 239 238 239 241 243 245 243 243 242 240 239 241 245
323 317 311 307 302 295 284 276 279 263 256 253 253 250 238 235 237 235 238 234 234 236 239 240 243 241 246 244 239 239 238 238 235 234 240 237 229 225 226 235 236 240 247
311 303 302 299 298 293 292 283 277 273 253 250 245 244 241 242 236 246 244 237 236 236 239 240 244 245 247 251 247 243 241 234 234 231 234 234 239 231 235 230 227 219 246
299 299 297 297 293 287 284 283 280 280 248 248 246 242 243 247 244 246 249 239 237 238 236 241 243 244 246 247 248 247 249 247 244 240 234 233 235 238 235 231 223 227 234
297 294 298 298 294 292 283 281 284 282 240 238 242 245 245 249 251 253 250 245 237 238 240 244 242 245 245 244 244 242 248 248 246 243 238 244 242 243 227 233 235 237 243
313 302 297 294 297 295 289 287 289 290 247 237 239 250 250 253 262 253 252 249 243 243 245 245 242 242 246 247 243 242 245 249 254 254 249 251 251 246 241 233 226 221 233
326 323 323 319 309 299 296 295 298 294 277 247 246 254 261 264 272 276 271 261 245 247 251 248 247 244 245 249 243 243 244 247 250 253 253 251 252 253 248 239 231 222 230
357 14 19 25 16 351 341 352 349 3 20 35 353 321 326 321 323 304 287 271 255 252 251 250 250 249 249 249 247 244 242 250 250 251 253 251 247 245 243 242 233 231 224
21 29 38 36 36 39 48 46 48 47 45 41 27 15 8 351 346 336 339 347 297 275 269 260 259 262 256 260 255 256 256 255 248 252 255 251 242 240 239 235 233 232 232
38 38 38 44 41 43 46 42 40 42 40 36 33 21 10 1 358 353 334 324 317 315 299 290 286 282 277 280 284 284 286 280 270 261 255 252 252 250 243 238 235 235 229
34 37 42 39 45 45 48 49 44 40 41 33 28 25 9 8 1 5 356 344 332 324 319 308 297 296 291 288 287 286 284 274 267 265 264 263 261 252 243 239 231 222 218
30 32 34 37 42 45 51 51 52 50 49 43 31 27 20 9 3 5 10 3 350 333 325 338 341 328 308 294 285 277 274 272 266 265 265 263 264 259 251 231 218 212 211
31 29 27 32 34 39 42 44 49 46 50 51 51 42 32 29 26 25 27 28 22 24 29 16 5 359 352 342 335 323 298 278 270 264 264 263 260 253 226 212 204 197 198
37 34 31 32 33 31 33 32 26 26 33 39 38 40 39 36 36 36 36 34 32 31 23 9 2 356 348 345 345 342 336 339 307 275 271 268 257 229 207 187 186 195 181
51 46 44 40 38 35 32 31 29 26 20 16 25 27 31 31 32 37 37 36 26 24 15 5 358 354 353 352 351 348 352 3 13 20 21 22 37 159 164 159 165 168 164
50 45 43 41 38 38 38 34 32 31 28 21 15 19 20 21 24 26 32 31 22 16 10 2 359 355 355 357 2 4 4 8 17 26 30 32 48 62 71 89 88 87 101
51 43 40 42 39 36 33 28 30 30 28 24 21 15 11 16 21 18 20 19 18 11 6 6 6 5 3 5 7 7 8 17 17 17 17 29 41 60 75 79 80 80 87
51 44 41 42 39 32 33 31 27 28 27 27 23 20 23 22 17 17 16 15 13 10 8 4 6 8 13 13 10 14 11 19 28 31 36 51 61 69 76 84 91 99 106
47 43 43 44 38 36 33 30 26 29 27 24 21 20 22 26 21 17 11 10 9 12 18 18 14 17 16 17 20 19 19 25 36 50 53 63 72 78 84 87 89 90 90
42 40 37 33 33 32 33 33 29 29 29 28 24 21 21 20 20 20 14 7 5 8 18 26 27 26 25 26 29 31 33 37 45 56 64 66 71 76 78 79 81 83 87
45 42 37 33 23 28 30 28 27 27 26 26 23 21 19 19 14 18 16 16 19 22 25 30 32 34 31 30 32 34 38 45 55 66 77 80 75 74 76 78 81 84 86
15 28 14 23 19 19 13 19 22 20 19 19 19 18 15 16 11 11 14 21 24 26 31 32 31 32 36 35 38 39 42 48 60 72 81 83 87 89 88 89 90 92 91
319 329 330 309 315 334 347 348 356 358 359 3 360 5 8 10 16 13 8 14 23 27 31 36 37 38 39 42 43 47 51 57 67 77 85 90 92 91 93 94 95 95 98